Location: G�nzburg
(48.4565°N, 10.3217°E)
Time: 03:56:03
(UTC+01:00)

Envisat - Visible Passes

Search period start: 21 February 2018 00:00
Search period end: 03 March 2018 00:00
Orbit: 764 x 766 km, 98.2° (Epoch: 20 February)

Date Brightness Start Highest point End Pass type
(mag) Time Alt. Az. Time Alt. Az. Time Alt. Az.
21 Feb 4.3 18:17:59 10° ESE 18:21:40 21° ENE 18:25:23 10° NNE visible
21 Feb 3.3 19:55:11 10° S 20:00:14 66° WSW 20:05:19 10° NNW visible
22 Feb 3.0 19:18:31 10° SSE 19:23:31 62° ENE 19:28:33 10° N visible
22 Feb 5.4 20:59:18 10° SW 21:02:58 20° W 21:06:40 10° NW visible
23 Feb 3.7 18:42:33 10° SE 18:47:00 32° ENE 18:51:28 10° N visible
23 Feb 4.3 20:21:11 10° SSW 20:25:56 40° W 20:30:43 10° NNW visible
24 Feb 3.0 19:44:00 10° SSE 19:49:05 81° WSW 19:54:12 10° NNW visible
24 Feb 5.9 21:27:09 10° WSW 21:28:55 12° W 21:30:42 10° WNW visible
25 Feb 3.2 19:07:32 10° SE 19:12:25 51° ENE 19:17:20 10° N visible
25 Feb 5.1 20:47:37 10° SSW 20:51:43 24° W 20:55:51 10° NW visible
26 Feb 4.0 18:31:47 10° ESE 18:35:58 27° ENE 18:40:09 10° N visible
26 Feb 3.9 20:09:49 10° S 20:14:44 49° W 20:19:41 10° NNW visible
27 Feb 2.9 19:32:52 10° SSE 19:37:56 83° ENE 19:43:03 10° NNW visible
27 Feb 5.8 21:14:49 10° WSW 21:17:37 15° W 21:20:26 10° NW visible
28 Feb 3.4 18:56:36 10° SE 19:01:21 41° ENE 19:06:07 10° N visible
28 Feb 4.8 20:36:04 10° SSW 20:40:29 30° W 20:44:56 10° NNW visible
01 Mar 3.5 19:58:32 10° S 20:03:33 61° W 20:08:36 10° NNW visible
02 Mar 2.9 19:21:47 10° SSE 19:26:49 68° ENE 19:31:53 10° N visible
02 Mar 5.5 21:02:53 10° SW 21:06:20 18° W 21:09:50 10° NW visible
